FW3688 Weather Reports


Display with metric or nautical units.
time (UTC)temp
F
wind
direction
speed
MPH
gust
MPH
rain 1hr
in
rain 24hr
in
rain mn
in
humidity
%
barometer
mb
20260506103753 60 21 8.0 15.0 0.00 0.00 0.00 52 1008.8
20260506101254 59 46 5.0 16.0 0.00 0.00 0.00 54 1008.9
20260506100753 58 43 6.0 15.0 0.00 0.00 0.00 53 1009.0
20260506100253 58 16 5.0 14.0 0.00 0.00 0.00 56 1009.0
20260506094753 58 32 4.0 13.0 0.00 0.00 0.00 56 1009.0
20260506094253 57 21 5.0 13.0 0.00 0.00 0.00 55 1009.0
20260506093253 57 41 5.0 16.0 0.00 0.00 0.00 55 1009.0
20260506091754 57 18 5.0 16.0 0.00 0.00 0.00 58 1009.1
20260506091253 56 32 7.0 16.0 0.00 0.00 0.00 56 1009.0
20260506090253 57 14 6.0 15.0 0.00 0.00 0.00 59 1009.0
20260506084753 57 11 7.0 12.0 0.00 0.00 0.00 56 1009.0
20260506084253 57 38 5.0 15.0 0.00 0.00 0.00 57 1009.0
20260506083753 57 35 6.0 14.0 0.00 0.00 0.00 56 1009.0
20260506083253 57 56 4.0 12.0 0.00 0.00 0.00 58 1009.0
20260506081754 56 27 5.0 10.0 0.00 0.00 0.00 56 1008.9
20260506081254 56 27 5.0 14.0 0.00 0.00 0.00 57 1008.9
20260506080753 56 37 6.0 12.0 0.00 0.00 0.00 56 1008.9
20260506080254 55 34 5.0 15.0 0.00 0.00 0.00 55 1008.9
20260506073253 54 39 5.0 12.0 0.00 0.00 0.00 58 1009.0
20260506071753 54 27 4.0 10.0 0.00 0.00 0.00 60 1008.9
20260506071254 53 40 4.0 13.0 0.00 0.00 0.00 62 1008.9
20260506070754 53 24 4.0 9.0 0.00 0.00 0.00 61 1008.9
20260506070254 53 57 3.0 14.0 0.00 0.00 0.00 62 1009.0
20260506061754 51 29 6.0 14.0 0.00 0.00 0.00 69 1008.8
20260506061254 50 39 5.0 10.0 0.00 0.00 0.00 74 1008.8
20260506060754 50 11 6.0 14.0 0.00 0.00 0.00 76 1008.8
20260506060254 49 2 3.0 15.0 0.00 0.00 0.00 78 1008.8
20260506050754 45 30 5.0 10.0 0.00 0.00 0.00 87 1008.8
20260506050254 45 27 4.0 13.0 0.00 0.00 0.00 87 1008.8
20260506044754 44 32 3.0 12.0 0.00 0.00 0.00 88 1008.9
20260506044254 44 44 2.0 7.0 0.00 0.00 0.00 88 1008.9
20260506043754 44 44 5.0 8.0 0.00 0.00 0.00 88 1008.8
20260506043254 44 30 4.0 9.0 0.00 0.00 0.00 88 1008.9
20260506041754 43 33 2.0 5.0 0.00 0.00 0.00 88 1008.9
20260506041254 43 30 1.0 5.0 0.00 0.00 0.00 88 1008.9
20260506040754 43 33 1.0 6.0 0.00 0.00 0.00 88 1008.9
20260506040254 43 18 1.0 8.0 0.00 0.00 0.00 88 1008.9
20260506034754 43 14 2.0 6.0 0.00 0.00 0.00 88 1008.9
20260506034254 43 27 1.0 5.0 0.00 0.00 0.00 89 1009.0
20260506033754 43 22 2.0 6.0 0.00 0.00 0.00 89 1008.9
20260506033255 43 17 2.0 7.0 0.00 0.00 0.00 89 1009.0
20260506031254 43 32 1.0 6.0 0.00 0.00 0.00 89 1009.0
20260506030754 43 35 2.0 6.0 0.00 0.00 0.00 89 1009.0
20260506030254 43 46 2.0 6.0 0.00 0.00 0.00 89 1009.0
20260506024754 43 19 2.0 6.0 0.00 0.00 0.00 89 1009.1
20260506024254 43 14 2.0 6.0 0.00 0.00 0.00 89 1009.1
20260506021755 43 26 0.0 1.0 0.00 0.00 0.00 90 1009.2
20260506021255 43 25 2.0 5.0 0.00 0.00 0.00 90 1009.3
20260506020754 43 24 2.0 5.0 0.00 0.00 0.00 90 1009.3
20260506020254 43 14 1.0 5.0 0.00 0.00 0.00 90 1009.3
20260506014255 43 28 1.0 3.0 0.00 0.00 0.00 90 1009.3
20260506013755 43 26 1.0 5.0 0.00 0.00 0.00 90 1009.3
20260506013255 43 25 2.0 5.0 0.00 0.00 0.00 91 1009.3
20260506011755 43 24 1.0 2.0 0.00 0.00 0.00 91 1009.4
20260506011255 43 24 1.0 2.0 0.00 0.00 0.00 91 1009.4
20260506010755 43 27 1.0 2.0 0.00 0.00 0.00 90 1009.4
20260506010255 43 28 0.0 6.0 0.00 0.00 0.00 90 1009.4
20260506004255 43 29 1.0 2.0 0.00 0.00 0.00 90 1009.5
20260506001755 44 34 1.0 3.0 0.00 0.00 0.00 91 1009.4
20260506001255 44 32 0.0 3.0 0.00 0.00 0.00 91 1009.3
20260506000755 44 31 1.0 3.0 0.00 0.00 0.00 91 1009.3
20260506000255 44 30 1.0 6.0 0.00 0.00 0.00 91 1009.4
20260505234755 44 24 1.0 6.0 0.00 0.00 0.00 91 1009.5
20260505234255 44 23 1.0 3.0 0.00 0.00 0.00 90 1009.5
20260505233755 44 31 1.0 2.0 0.00 0.00 0.00 91 1009.5
20260505233255 44 32 1.0 5.0 0.00 0.00 0.00 90 1009.5
20260505231755 45 30 1.0 6.0 0.00 0.00 0.00 90 1009.5
20260505231256 45 32 1.0 5.0 0.00 0.00 0.00 90 1009.5
20260505230255 45 30 1.0 6.0 0.00 0.00 0.00 91 1009.4
20260505224755 45 35 0.0 3.0 0.00 0.00 0.00 90 1009.5
20260505224255 45 33 1.0 2.0 0.00 0.00 0.00 90 1009.5
20260505223755 45 33 0.0 2.0 0.00 0.00 0.00 90 1009.5
20260505223255 45 33 0.0 3.0 0.00 0.00 0.00 89 1009.5
20260505221255 45 34 0.0 1.0 0.00 0.00 0.00 89 1009.6
20260505220756 45 34 0.0 0.0 0.00 0.00 0.00 88 1009.6
20260505220256 45 34 0.0 5.0 0.00 0.00 0.00 88 1009.6
20260505214756 45 34 0.0 0.0 0.00 0.00 0.00 88 1009.7
20260505214256 46 34 0.0 3.0 0.00 0.00 0.00 88 1009.8
20260505213756 46 32 0.0 3.0 0.00 0.00 0.00 88 1009.8
20260505211756 46 36 1.0 5.0 0.00 0.00 0.00 86 1009.9
20260505211256 46 35 1.0 2.0 0.00 0.00 0.00 86 1009.9
20260505210756 46 38 1.0 5.0 0.00 0.00 0.00 85 1009.9
20260505210256 46 113 0.0 0.0 0.00 0.00 0.00 85 1009.9
20260505204755 47 114 0.0 0.0 0.00 0.00 0.00 83 1009.9
20260505204256 47 115 0.0 0.0 0.00 0.00 0.00 83 1010.0
20260505203755 47 115 0.0 0.0 0.00 0.00 0.00 83 1009.9
20260505203256 48 115 0.0 3.0 0.00 0.00 0.00 83 1010.0
20260505201755 48 115 2.0 7.0 0.00 0.00 0.00 83 1009.9
20260505201255 48 100 1.0 3.0 0.00 0.00 0.00 83 1009.9
20260505194756 48 106 1.0 5.0 0.00 0.00 0.00 82 1009.8
20260505194256 48 98 1.0 7.0 0.00 0.00 0.00 81 1009.8
20260505193756 48 96 2.0 7.0 0.00 0.00 0.00 81 1009.8
20260505191756 49 58 2.0 7.0 0.00 0.00 0.00 78 1009.6
20260505191256 49 88 0.0 5.0 0.00 0.00 0.00 77 1009.5
20260505190256 50 40 2.0 7.0 0.00 0.00 0.00 75 1009.4
20260505184756 51 89 2.0 8.0 0.00 0.00 0.00 73 1009.4
20260505184256 51 27 2.0 6.0 0.00 0.00 0.00 73 1009.4
20260505183756 51 32 3.0 9.0 0.00 0.00 0.00 73 1009.4
20260505183256 51 50 4.0 12.0 0.00 0.00 0.00 72 1009.3
20260505181756 52 42 2.0 7.0 0.00 0.00 0.00 72 1009.4
20260505181256 52 21 3.0 8.0 0.00 0.00 0.00 72 1009.4
20260505180756 52 32 2.0 7.0 0.00 0.00 0.00 72 1009.4
20260505174756 53 34 2.0 7.0 0.00 0.00 0.00 72 1009.4
20260505174256 53 34 3.0 7.0 0.00 0.00 0.00 71 1009.4
20260505173756 53 21 2.0 6.0 0.00 0.00 0.00 71 1009.4
20260505173256 53 22 3.0 7.0 0.00 0.00 0.00 70 1009.4
20260505171757 54 22 2.0 9.0 0.00 0.00 0.00 69 1009.5
20260505171256 54 43 2.0 6.0 0.00 0.00 0.00 68 1009.4
20260505170756 55 29 1.0 3.0 0.00 0.00 0.00 68 1009.4
20260505170257 55 32 1.0 7.0 0.00 0.00 0.00 66 1009.5
20260505164757 57 72 2.0 5.0 0.00 0.00 0.00 65 1009.4
20260505164256 58 48 1.0 5.0 0.00 0.00 0.00 61 1009.5
20260505163756 59 50 1.0 3.0 0.00 0.00 0.00 61 1009.5
20260505163256 60 43 1.0 8.0 0.00 0.00 0.00 59 1009.6
20260505161756 61 43 2.0 5.0 0.00 0.00 0.00 60 1009.6
20260505161256 61 48 2.0 8.0 0.00 0.00 0.00 57 1009.6
20260505160756 62 28 2.0 6.0 0.00 0.00 0.00 57 1009.6
20260505151257 59 101 2.0 5.0 0.00 0.00 0.00 65 1009.9
20260505150757 60 89 5.0 9.0 0.00 0.00 0.00 65 1010.0
20260505150257 59 88 4.0 10.0 0.00 0.00 0.00 67 1009.9
20260505130257 59 42 2.0 9.0 0.00 0.00 0.00 66 1010.2
20260505124757 61 46 2.0 7.0 0.00 0.00 0.00 64 1010.3
20260505124257 63 86 2.0 7.0 0.00 0.00 0.00 61 1010.3
20260505123757 65 45 2.0 7.0 0.00 0.00 0.00 58 1010.4
20260505123257 65 82 2.0 7.0 0.00 0.00 0.00 62 1010.3
20260505121757 65 71 3.0 8.0 0.00 0.00 0.00 58 1010.4
20260505121257 66 23 3.0 9.0 0.00 0.00 0.00 60 1010.4
20260505120757 65 66 2.0 7.0 0.00 0.00 0.00 62 1010.4
20260505120257 64 71 2.0 7.0 0.00 0.00 0.00 58 1010.5
20260505114757 64 35 3.0 12.0 0.00 0.00 0.00 61 1010.5
20260505114258 62 102 2.0 7.0 0.00 0.00 0.00 67 1010.5
20260505113758 59 75 2.0 6.0 0.00 0.00 0.00 69 1010.6
20260505113257 60 76 2.0 7.0 0.00 0.00 0.00 63 1010.6
20260505111757 62 32 2.0 7.0 0.00 0.00 0.00 67 1010.6
20260505111257 58 28 2.0 7.0 0.00 0.00 0.00 67 1010.7
20260505110757 60 35 2.0 7.0 0.00 0.00 0.00 63 1010.7
20260505110258 62 20 2.0 8.0 0.00 0.00 0.00 57 1010.7